Flag for Bahamas Weather past 2 weeks in Freeport, Bahamas

Now
75 °F

Passing clouds.


Feels Like: 74 °F
Forecast: 79 / 83 °F
Wind: 3 mph from West

Location: Palm Beach International Airport

Current Time: Sep 18, 2014 at 6:24:49 AM

Latest Report: Sep 18, 2014 at 5:53 AM


Visibility: 10 mi

Pressure: 29.88 "Hg

Humidity: 90%

Dew point: 72 °F

Location of FreeportLocation

Historic Weather in Freeport — Graph

°F

Freeport temperature yesterday

Maximum temperature yesterday: 89 °F (at 1:53 PM)
Minimum temperature yesterday: 75 °F (at 5:53 AM)
Average temperature yesterday: 80 °F

Past Weeks' High & Low Weather Summary

 TemperatureHumidityPressure
High90 °F (Sep 5, 3:53 PM)100% (Sep 5, 4:53 AM)30.15 "Hg (Sep 5, 4:53 AM)
Low73 °F (Sep 14, 3:53 AM)53% (Sep 9, 12:53 PM)29.86 "Hg (Sep 18, 3:53 AM)
Average81 °F79%30.01 "Hg
* Reported Sep 3 4:53 AM — Sep 18 4:53 AM, Freeport, Weather by CustomWeather, © 2014

Note: Actual official high and low records may vary slightly from our data, if they occured in-between our weather recording intervals... More about our weather records

Advertising

Freeport weather history for previous 24 hours

 ConditionsComfort  
Time TempWeatherWind HumidityBarometerVisibility
4:53 AM
Sep 18
74 °FPassing clouds.3 mph94%29.87 "Hg10 mi
3:53 AM75 °FPassing clouds.5 mph90%29.86 "Hg10 mi
2:53 AM75 °FPassing clouds.5 mph90%29.88 "Hg10 mi
1:53 AM75 °FPartly cloudy.5 mph90%29.90 "Hg10 mi
12:53 AM76 °FPartly cloudy.3 mph88%29.92 "Hg10 mi
11:53 PM
Sep 17
77 °FPassing clouds.3 mph82%29.94 "Hg10 mi
10:53 PM78 °FPassing clouds.6 mph79%29.93 "Hg10 mi
9:53 PM78 °FPassing clouds.10 mph79%29.92 "Hg10 mi
8:53 PM78 °FPassing clouds.6 mph76%29.92 "Hg10 mi
7:53 PM78 °FPartly sunny.5 mph79%29.90 "Hg10 mi
6:53 PM78 °FPartly sunny.6 mph79%29.89 "Hg10 mi
5:53 PM79 °FMore clouds than sun.8 mph74%29.88 "Hg10 mi
4:53 PM79 °FMore clouds than sun.14 mph77%29.89 "Hg10 mi
3:53 PM86 °FBroken clouds.15 mph57%29.88 "Hg10 mi
2:53 PM87 °FBroken clouds.12 mph59%29.89 "Hg10 mi
1:53 PM89 °FLight rain. Broken clouds.8 mph57%29.91 "Hg10 mi
12:53 PM88 °FPartly sunny.10 mph55%29.93 "Hg10 mi
11:53 AM87 °FBroken clouds.7 mph63%29.95 "Hg10 mi
10:53 AM85 °FBroken clouds.6 mph68%29.97 "Hg10 mi
9:53 AM82 °FBroken clouds.3 mph74%29.96 "Hg10 mi
8:53 AM79 °FBroken clouds.5 mph82%29.96 "Hg10 mi
7:53 AM76 °FPartly cloudy.No wind94%29.95 "Hg10 mi
6:53 AM75 °FPassing clouds.No wind94%29.93 "Hg10 mi
Weather by CustomWeather, © 2014

See weather overviewHow to use our weather pages